Location: Bermersbach
(48.3852°N, 7.9892°E)
Time: 14:00:18
(UTC+00:00)

Daily predictions for brighter satellites

Satellite Brightness Start Highest point End
(mag) Time Altitude Azimuth Time Altitude Azimuth Time Altitude Azimuth
COSMOS 2455 3.6 16:01:43 10° S 16:07:05 35° ESE 16:12:30 10° NE
Cosmos 2322 Rocket 3.7 16:10:02 10° N 16:13:37 17° NE 16:17:13 10° ENE
Cosmos 1697 Rocket 2.7 16:08:25 10° NNW 16:14:05 84° ENE 16:19:43 10° SSE
CZ-4C R/B 3.1 16:08:42 10° NW 16:15:29 54° NE 16:23:31 10° ESE
Cosmos 468 Rocket 4.0 16:13:15 10° SSW 16:18:24 76° ESE 16:23:37 10° NNE
Cosmos 1980 Rocket 2.3 16:13:44 10° NNW 16:19:18 52° NE 16:24:47 10° SE
NOAA 12 4.1 16:16:20 10° SSE 16:21:39 77° ENE 16:26:58 10° NNW
ATLAS CENTAUR R/B 3.2 16:13:46 10° SW 16:24:36 71° SE 16:28:48 11° ENE
COSMO-SKYMED 1 4.3 16:22:51 10° ENE 16:25:10 14° E 16:27:27 10° ESE
Cosmos 1898 Rocket 3.7 16:20:03 10° NNW 16:25:19 80° WSW 16:30:31 10° SSE
Meteor PRIRODA 3.6 16:21:56 10° SSE 16:25:35 90° W 16:29:13 10° NNW
Cosmos 2369 3.7 16:20:22 10° NNW 16:26:08 71° ENE 16:31:50 10° SE
Cosmos 1933 3.4 16:23:46 10° S 16:27:43 57° E 16:31:41 10° NNE
USA 305 3.6 16:25:05 10° WNW 16:29:05 38° N 16:32:38 12° ENE
Cosmos 1633 Rocket 4.0 16:25:26 10° NNE 16:29:06 25° ENE 16:32:46 10° SE
FengYun 1-2 T 4.2 16:24:39 10° SSE 16:30:12 77° ENE 16:35:46 10° NNW
Cosmos 2034 Rocket 4.1 16:24:11 10° S 16:30:20 85° W 16:36:34 10° N
CZ-4B R/B 2.9 16:26:47 10° SSE 16:30:47 84° WSW 16:34:35 10° NNW
NOSS 2-2 (C) 4.3 16:25:56 10° NW 16:30:58 78° NE 16:38:03 10° SE
Cosmos 1812 3.8 16:28:19 10° SE 16:31:27 24° E 16:34:35 10° NE
CORIOLIS 4.2 16:26:38 10° SSE 16:31:55 59° ENE 16:37:16 10° N
Cosmos 1818 4.1 16:26:48 10° NNW 16:31:58 39° NE 16:37:03 10° ESE
SL-16 R/B 3.2 16:28:38 10° N 16:33:17 25° NE 16:37:53 10° E
AQUARIUS 4.2 16:32:01 10° SSE 16:36:26 58° ENE 16:40:51 10° N
Cosmos 1151 Rocket 4.0 16:33:00 10° SSE 16:36:40 27° E 16:40:22 10° NNE
Cosmos 2082 Rocket 2.6 16:32:07 10° S 16:37:30 47° ESE 16:42:55 10° NE
USA 267 3.4 16:32:04 11° ENE 16:38:27 68° SE 16:44:57 10° SW
SMAP 3.0 16:36:37 10° SSE 16:41:15 76° ENE 16:45:55 10° N
Meteor 2-14 Rocket 4.4 16:35:56 10° N 16:42:02 69° ENE 16:48:04 10° SSE
Cosmos 1743 Rocket 4.3 16:41:20 10° NNW 16:45:35 56° W 16:49:49 10° S
Cosmos 2333 Rocket 4.0 16:45:13 10° N 16:47:50 13° NNE 16:49:04 12° NE
ARGOS 3.8 16:43:13 10° SE 16:47:59 33° ENE 16:52:45 10° N
MOS 1-B 4.5 16:42:27 10° SE 16:48:02 53° ENE 16:53:38 10° N
Cosmos 1763 Rocket 3.9 16:43:11 10° SW 16:48:12 61° WNW 16:53:18 10° NNE
Cosmos 1634 Rocket 4.0 16:42:53 10° S 16:49:07 67° E 16:55:25 10° NNE
Cosmos 2278 3.7 16:43:42 10° NNW 16:49:24 63° ENE 16:55:01 10° SE
Cosmos 2026 Rocket 3.9 16:43:57 10° N 16:50:07 82° E 16:56:11 10° S
Cosmos 1602 4.0 16:46:45 10° NNW 16:50:36 72° W 16:54:27 10° S
CZ-4B DEB 4.1 16:45:46 10° SSE 16:51:15 72° ENE 16:56:44 10° NNW
Cosmos 44 Rocket 3.5 16:49:21 10° NNW 16:54:09 47° NE 16:58:47 10° ESE
SeaSat 1 4.4 16:51:05 10° N 16:54:50 22° NW 16:58:32 10° W
Cosmos 1833 Rocket 3.0 16:49:36 10° SW 16:55:11 67° WNW 17:00:50 10° NNE
CZ-2C R/B 4.0 16:51:43 10° S 16:56:24 46° W 17:00:59 10° NNW
Cosmos 841 Rocket 3.4 16:51:20 10° SSW 16:56:28 76° ESE 17:01:38 10° NNE
Cosmos 1666 Rocket 3.6 16:52:35 10° N 16:56:58 55° ENE 17:01:17 10° SSE
Okean O Rocket 2.3 16:54:00 10° SE 16:57:59 33° ENE 17:01:57 10° N
MOS 1-B Rocket 4.4 16:52:22 10° NNE 16:58:08 48° E 17:04:42 10° S
Cosmos 1470 Rocket 4.3 16:56:17 10° N 17:00:16 31° ENE 17:04:15 10° SE
Cosmos 1328 Rocket 4.2 16:56:17 10° SSE 17:00:18 34° E 17:03:23 15° NNE
H-2A R/B 2.0 16:56:25 10° SSE 17:01:28 62° ENE 17:06:26 10° N
USA 306 3.4 16:57:25 10° WNW 17:01:29 42° N 17:03:36 24° ENE
Cosmos 1937 Rocket 4.3 16:56:51 10° NNW 17:02:03 55° WSW 17:07:12 10° S
Cosmos 1939 Rocket 3.6 16:58:44 10° S 17:02:47 58° W 17:06:49 10° NNW
COSMOS 2406 3.4 16:58:35 10° SW 17:04:20 74° WNW 17:10:05 10° NNE
Cosmos 2219 Rocket 4.0 17:01:55 10° N 17:04:29 13° NNE 17:04:46 13° NNE
ISS -2.6 17:01:35 10° WNW 17:04:50 43° SSW 17:08:04 10° SE
ATLAS 2AS CENTAUR R/B 4.2 17:00:21 10° NW 17:06:25 24° N 17:10:37 15° NE
Cosmos 372 Rocket 4.2 17:01:41 10° NNW 17:06:56 76° WSW 17:12:09 10° SSE
CZ-2C R/B 3.0 17:02:59 11° NNE 17:07:44 39° E 17:12:33 10° SSE
Meteor 2-21 Rocket 4.3 17:01:46 10° N 17:07:54 80° E 17:13:57 10° SSE
Cosmos 1125 Rocket 4.0 17:03:27 10° N 17:08:21 37° ENE 17:13:14 10° SE
Cosmos 1500 3.5 17:06:47 10° NNW 17:10:30 65° W 17:14:10 10° S
USA 234 3.4 17:06:18 10° SE 17:12:51 79° SW 17:19:26 10° NW
SKYMED 2 4.0 17:11:18 22° NE 17:13:39 39° E 17:17:44 10° SSE
Cosmos 1782 3.3 17:12:50 10° SSW 17:16:47 62° WNW 17:20:45 10° N
Sich 1 3.9 17:13:54 10° NNW 17:18:04 51° W 17:22:15 10° S
CZ-2D R/B 3.2 17:14:19 10° S 17:18:09 82° WSW 17:22:00 10° NNW
Cosmos 1655 Rocket 4.2 17:12:32 10° N 17:18:44 49° ENE 17:24:51 10° SSE
CZ-4B R/B 3.0 17:15:07 10° SSE 17:20:28 69° ENE 17:25:47 10° N
USA 307 3.3 17:17:04 10° WNW 17:21:11 46° NNE 17:22:25 35° ENE
Meteor 2-6 Rocket 4.2 17:17:22 10° S 17:22:58 58° E 17:28:27 10° NNE
SJ-11-01 4.3 17:20:07 10° SSE 17:24:47 60° ENE 17:29:28 10° N
ATLAS 5 CENTAUR R/B 2.1 17:18:14 10° NW 17:25:35 52° NNE 17:26:27 41° ENE
PAYLOAD B 4.4 17:21:05 10° SSE 17:26:42 78° WSW 17:32:20 10° NNW
deb Chang Zheng 4 3.4 17:26:17 10° SSE 17:30:35 76° ENE 17:34:54 10° NNW
ERBS 4.2 17:28:58 10° NW 17:30:53 17° N 17:30:53 17° N
Cosmos 2360 Rocket 2.9 17:32:14 10° NNW 17:37:19 32° NE 17:37:22 32° NE
Lacrosse 5 rocket 1.2 17:34:02 10° NW 17:37:58 88° SW 17:39:14 43° SE
Cosmos 1666 3.4 17:35:56 10° NNW 17:39:35 53° W 17:43:11 10° S
ATLAS CENTAUR R/B 4.0 17:38:58 10° NNW 17:40:06 11° N 17:41:01 10° N
USA 308 3.0 17:39:40 10° WNW 17:43:52 53° NNE 17:44:08 52° NE
Cosmos 1515 Rocket 3.6 17:40:33 10° S 17:44:48 54° E 17:44:48 54° E
Meteor 1-11 Rocket 3.6 17:46:45 10° N 17:52:24 70° ENE 17:58:07 10° SSE
Meteor 1-10 Rocket 4.1 17:46:43 10° S 17:52:27 73° E 17:56:15 22° NNE
COSMOS 2455 3.5 17:46:59 10° SW 17:52:51 52° NW 17:56:40 22° NNE
COSMOS 2428 4.4 17:49:47 10° N 17:52:06 17° NNE 17:52:06 17° NNE
Cosmos 921 Rocket 2.8 17:53:39 10° SSW 17:57:51 84° ESE 17:57:55 83° E
Cosmos 1570 Rocket 4.4 17:53:34 10° SW 17:58:45 63° WNW 18:01:47 25° N
Cosmos 2322 Rocket 2.1 17:53:10 10° NNW 17:58:51 65° ENE 18:00:16 48° ESE
SL-08 RB Rocket 3.6 17:55:16 10° SSE 17:59:54 88° E 18:04:32 10° NNW
COSMO-SKYMED 1 2.8 17:59:55 33° N 18:01:49 69° WNW 18:06:07 10° SSW
Cosmos 2298 Rocket 4.1 17:56:44 10° NNW 18:02:04 77° WSW 18:07:23 10° SSE
Cosmos 1980 Rocket 4.2 17:58:13 10° NW 18:03:00 29° WSW 18:07:46 10° SSW
CZ-4C R/B 3.8 17:57:14 10° NW 18:04:17 52° WSW 18:12:25 10° SSE
Cosmos 1356 Rocket 4.4 18:01:32 10° NNW 18:04:07 37° N 18:04:07 37° N
USA 305 3.3 18:05:07 10° WNW 18:08:38 57° NW 18:08:38 57° NW
Meteor 2-15 Rocket 4.3 18:03:22 10° S 18:09:29 83° E 18:14:07 19° NNE
Feng Yun 1-1 Rocket 4.3 18:05:12 10° SSE 18:11:08 87° WSW 18:17:01 10° NNW
YAOGAN 1 4.3 18:14:04 23° NNW 18:14:04 23° NNW 18:15:45 10° NNW
CZ-2C R/B 3.9 18:13:19 10° SSW 18:14:25 12° S 18:14:25 12° S
Cosmos 1818 4.5 18:10:25 10° NW 18:15:40 48° WSW 18:20:30 12° S
Cosmos 2266 Rocket 4.2 18:11:29 10° NNW 18:17:51 72° W 18:24:14 10° S
SL-16 R/B 2.3 18:12:18 10° NNW 18:17:59 74° WSW 18:21:04 28° SSE
Aureole 3 Rocket 4.5 18:14:17 10° S 18:26:48 - NNE 18:16:26 31° S
Cosmos 2237 Rocket 4.5 18:17:42 10° N 18:17:59 11° N 18:17:59 11° N
USA 267 3.6 18:19:25 41° NNE 18:21:23 56° NNW 18:27:44 10° W
Cosmos 2082 Rocket 3.5 18:16:34 10° WSW 18:21:45 35° NW 18:24:53 21° N
Landsat 5 4.3 18:25:10 45° WSW 18:25:10 45° WSW 18:28:14 10° SSW
ARGOS 4.3 18:23:00 10° SSW 18:28:08 42° W 18:33:16 10° NNW
GEOS 3 Rocket 3.6 18:30:35 73° NNW 18:30:35 73° NNW 18:35:18 10° NW
Cosmos 2333 Rocket 3.6 18:28:13 10° NNW 18:31:06 27° N 18:31:06 27° N
Okean O Rocket 3.4 18:30:22 10° SSW 18:34:19 31° W 18:38:17 10° NNW
CZ-2C R/B 4.1 18:44:29 16° N 18:47:57 33° WNW 18:52:30 10° SW
Cosmos 2219 Rocket 4.0 18:44:32 10° NNW 18:46:30 21° N 18:46:30 21° N
ATLAS CENTAUR R/B 4.2 18:50:50 10° W 18:54:28 23° NW 18:54:28 23° NW
NOSS 3-4 (A) 4.3 18:50:01 10° NW 18:55:00 45° N 18:55:00 45° N
NOSS 3-4 (C) 4.3 18:50:07 10° NW 18:55:05 45° N 18:55:05 45° N
Meteor 1-27 Rocket 4.3 18:52:03 10° SSW 18:56:41 51° WSW 18:56:41 51° WSW
ATLAS 2AS CENTAUR R/B 3.9 18:52:53 10° NW 18:58:02 32° N 18:58:02 32° N
Lacrosse 5 rocket 4.4 19:14:04 10° W 19:14:52 13° W 19:14:52 13° W
Cosmos 2360 Rocket 3.7 19:16:05 10° NW 19:19:09 31° NW 19:19:09 31° NW
Cosmos 2322 Rocket 4.2 19:38:02 10° NW 19:42:10 23° W 19:42:10 23° W
